Location: *
(12.0233°N, 124.3267°E)
Time: 05:36:47
(UTC+00:00)

Daily predictions for brighter satellites

Satellite Brightness Start Highest point End
(mag) Time Altitude Azimuth Time Altitude Azimuth Time Altitude Azimuth
Okean 2 3.5 09:58:18 10° N 10:02:25 82° W 10:06:33 10° S
GPS 2-14 Rocket1 4.3 09:59:34 10° NW 10:02:39 22° N 10:05:42 10° ENE
CZ-4 R/B 1.6 10:01:10 10° SSE 10:04:48 42° ENE 10:08:28 10° N
Meteor 2-15 Rocket 4.4 10:00:40 10° S 10:06:47 81° E 10:12:55 10° N
CSL-04 Rocket 4.1 10:02:35 10° SE 10:07:37 40° ENE 10:12:43 10° N
NOAA 12 4.3 10:03:22 10° S 10:08:35 80° WSW 10:13:48 10° NNW
Ariane H10 3.6 10:07:20 10° WSW 10:10:12 37° S 10:13:58 11° ESE
COSMOS 2455 3.4 10:04:51 10° N 10:10:18 36° ENE 10:15:42 10° SE
CZ-3 Stage 3 2.5 10:00:37 10° WSW 10:11:25 60° NW 10:14:27 10° NE
YAOGAN 6 2.9 10:08:28 10° SSE 10:11:56 44° ENE 10:15:25 10° N
deb Ariane 3.8 10:10:09 10° SW 10:12:17 25° SSE 10:15:44 11° ESE
GOES 2 Rocket 4.0 10:07:41 10° WSW 10:13:11 81° NNW 10:20:38 10° ENE
GPS 2-15 Rocket1 3.1 10:08:59 10° WSW 10:13:37 82° SSE 10:17:52 12° ENE
CSL-04 Debris 4.3 10:10:52 10° SSE 10:16:03 49° ENE 10:21:12 10° N
Lacrosse 4 Rocket 3.6 10:13:57 10° NW 10:17:25 28° WSW 10:20:56 10° SSW
Meteor 1-21 4.3 10:13:15 10° N 10:18:47 58° E 10:24:24 10° SSE
Okean 1 Rocket 3.4 10:15:53 10° S 10:20:10 70° W 10:24:29 10° N
Cosmos 2251 Rocket 3.6 10:17:05 10° N 10:22:19 56° ENE 10:27:31 10° SSE
ATLAS CENTAUR R/B 3.1 10:23:31 10° SSE 10:26:51 19° ESE 10:27:44 18° E
Ariane Rocket 3.9 10:24:04 10° SE 10:28:15 27° ENE 10:32:27 10° NNE
Cosmos 2333 Rocket 2.9 10:24:16 10° N 10:29:17 31° ENE 10:33:32 13° SE
Cosmos 405 Rocket 2.7 10:28:02 10° S 10:31:35 47° E 10:35:07 10° NNE
Cosmos 1939 Rocket 3.7 10:30:09 18° ESE 10:32:02 26° ENE 10:35:17 10° NNE
Cosmos 2184 Rocket 4.0 10:29:05 10° N 10:35:23 86° E 10:41:45 10° S
Shi Jian 4 4.4 10:36:57 10° W 10:38:56 34° NNW 10:39:49 23° NNE
Cosmos 2056 Rocket 4.4 10:36:38 10° SSW 10:41:53 53° WNW 10:47:10 10° N
Cosmos 1842 4.1 10:39:11 10° NNW 10:42:59 51° W 10:46:46 10° S
Cosmos 1025 Rocket 3.4 10:39:40 10° NNW 10:43:54 66° W 10:48:08 10° S
ATLAS 2AS CENTAUR R/B 3.5 10:38:05 10° N 10:44:04 29° ENE 10:45:55 25° E
Cosmos 1420 Rocket 4.0 10:40:09 10° S 10:45:17 57° ESE 10:50:28 10° NNE
YAOGAN 1 3.1 10:44:20 10° S 10:48:35 59° WSW 10:52:50 10° NNW
GPS 2-17 Rocket1 4.3 10:48:43 10° WNW 10:52:30 27° N 10:53:53 23° NNE
NOAA 11 4.2 10:48:48 10° SSE 10:54:12 60° ENE 10:59:36 10° N
Cosmos 1610 Rocket 4.5 10:50:46 10° N 10:57:08 86° E 11:03:31 10° S
Cosmos 2082 4.0 10:53:03 10° SSW 10:58:44 69° WNW 11:04:25 10° N
Cosmos 2219 Rocket 2.1 10:55:24 10° N 11:00:57 67° ENE 11:04:11 26° SSE
CZ-2C R/B 3.8 10:58:46 10° N 11:03:09 71° WNW 11:07:34 10° SSW
Cosmos 1295 Rocket 4.4 10:57:12 10° N 11:03:10 58° E 11:09:07 10° SSE
ASTEX 1 3.5 11:02:53 10° N 11:07:45 77° W 11:12:39 10° SSW
ARIANE 5 R/B 3.9 11:06:34 10° WSW 11:10:01 52° S 11:13:07 35° ESE
Cosmos 2227 Rocket 4.4 11:09:13 10° SW 11:13:46 25° WNW 11:18:22 10° NNW
COSMOS 2428 2.8 11:14:21 10° NNW 11:20:00 74° WSW 11:23:17 26° S
Cosmos 1707 4.3 11:27:38 10° NNW 11:30:11 33° NW 11:30:11 33° NW
Cosmos 1544 Rocket 4.4 11:28:22 10° SSW 11:32:40 49° W 11:36:59 10° N
MOS 1 4.2 11:33:23 77° N 11:33:23 77° N 11:38:40 10° NNW
Cosmos 1452 Rocket 4.5 11:31:10 10° SSW 11:36:09 45° WNW 11:41:09 10° N
SL-4 R/B 4.5 11:34:26 10° W 11:37:01 17° NW 11:37:50 16° NW
Lacrosse 5 3.8 11:33:42 10° WSW 11:37:57 27° WNW 11:41:16 14° N
Cosmos 2341 Rocket 4.3 11:44:21 10° NNW 11:50:26 62° W 11:51:34 53° SW
